Hourly Data Report for September 15, 2017

All times are specified in Local Standard Time (LST). Add 1 hour to adjust for Daylight Saving Time where and when it is observed.

SAINT JOHN A
NEW BRUNSWICK

45°18'58.000" N
65°53'24.000" W
108.80 m
8104901
71609
YSJ

Download Data

Hourly Data (September 2017)
Hourly Data Report for September 15, 2017
Temp Definition
°C
Dew Point Temp Definition
°C
Rel Hum Definition
%
Wind Dir Definition
10's deg

Wind Spd Definition
km/h
Visibility Definition
km
Stn Press Definition
kPa
Hmdx Definition


Wind Chill Definition


Weather Definition


TIME
00:00 Legend Double Dagger 13.4 13.3 99 20 10 0.6 100.07     Fog
01:00 Legend Double Dagger 13.2 13.1 99 22 5 0.6 100.11     Fog
02:00 Legend Double Dagger 12.9 12.8 99 16 6 0.4 100.15     Fog
03:00 Legend Double Dagger 13.2 13.1 99 6 5 0.6 100.19     Fog
04:00 Legend Double Dagger 12.7 12.6 99 36 3 0.6 100.24     Fog
05:00 Legend Double Dagger 12.3 12.2 100 36 2 0.6 100.30     Fog
06:00 Legend Double Dagger 12.0 11.9 100 16 7 0.6 100.41     Fog
07:00 Legend Double Dagger 12.1 12.0 100 6 7 0.8 100.50     Fog
08:00 Legend Double Dagger 13.0 12.9 99 4 4 3.2 100.57     Fog
09:00 Legend Double Dagger 16.8 14.8 88 7 9 24.1 100.62     LegendNANA
10:00 Legend Double Dagger 19.1 15.4 79 10 12 24.1 100.67     LegendNANA
11:00 Legend Double Dagger 20.1 15.6 75 14 8 24.1 100.69     Mostly Cloudy
12:00 Legend Double Dagger 21.4 15.4 68 9 9 24.1 100.68 26   LegendNANA
13:00 Legend Double Dagger 22.4 14.2 59 11 12 24.1 100.66 26   LegendNANA
14:00 Legend Double Dagger 23.2 15.6 62 14 7 24.1 100.64 28   Mainly Clear
15:00 Legend Double Dagger 22.9 14.3 58 12 11 24.1 100.62 26   LegendNANA
16:00 Legend Double Dagger 21.5 15.1 66 14 11 24.1 100.67 26   LegendNANA
17:00 Legend Double Dagger 20.1 14.6 71 10 8 24.1 100.68     Mainly Clear
18:00 Legend Double Dagger 18.4 14.4 77 14 8 24.1 100.70     LegendNANA
19:00 Legend Double Dagger 16.0 14.3 89 19 9 24.1 100.74     LegendNANA
20:00 Legend Double Dagger 15.0 14.2 95 19 8 24.1 100.76     Mainly Clear
21:00 Legend Double Dagger 15.2 14.9 98 36 2 1.0 100.77     Fog
22:00 Legend Double Dagger 15.3 15.2 99 36 1 0.8 100.79     Fog
23:00 Legend Double Dagger 15.8 15.7 99 20 5 0.8 100.78     Fog

Notes on Data Quality.

Legend

  • E = Estimated
  • M = Missing
  • NA = Not Available
  • ‡ = Partner data that is not subject to review by the National Climate Archives
Date modified: